Ellington Field
KEFD : rendu visible

Aérodrome :











RETROUVEZ-NOUS SUR...

 
LOGIN :

S'inscrire | Disclaimer

   EN    FR    IT 

 









Légende :    VFR   VFR Marginal   IFR   IFR Intensif   IFR Très Intensif
Visi : 
Plafond : 
>= 8 km
>= 3000ft
5 à 8 km
1000 à 3000 ft
1500m à 5 km
500 à 1000 ft
800 à 1500m
200 à 500 ft
< 800m
< 200 ft
Symboles :   Orages  Brouillard  Fortes neiges  Fortes précipitations  Vent > 20 kt






- Altitude de l'aérodrome : 32 ft


KEFD - Ellington Field

DERNIER METAR :
  • 300050Z 35006KT 10SM BKN035 BKN250 28/19 A3002

METARs EXPIRÉS :
  • 292350Z 00000KT 10SM BKN035 BKN250 29/20 A2999
  • 292250Z 00000KT 10SM BKN035 BKN250 29/18 A2998

TAF TAF KEFD
Valide du 29 à 20h jusqu'au 31 à 02h UTC


292000Z 2920/3102 04012KT 9000 -SHRA BKN035 QNH2999INS
BECMG 3000/3001 VRB06KT 9999 NSW SCT050 QNH2997INS
BECMG 3015/3016 08010G15KT 9999 SCT050 QNH2995INS TX30/2921Z TN20/3012Z
FIR KZHU / Amérique du Nord



MET'MAP, la Météo Aéronautique d'un coup d'oeil ! - Copyright ORBIFLY Décembre 2007 - Disclaimer

ORBIFLY MET'MAP TEAM :

Programmation & Développement : Alexandra Zaïnal
Sur une idée originale de : Baudouin d'Aumeries
Assistance à la programmation : Marc-Olivier Méhu
Soutien technique & logistique : Manuel Goepfert

Contact : metmap@orbifly.com




SOURCES & CREDITS :

   NOAA       Earth
Advisory